HI3R-13 Weather Reports


time (UTC)temp
C
wind
direction
speed
KPH
gust
KPH
rain 1hr
cm
rain 24hr
cm
rain mn
cm
humidity
%
barometer
mb
20260503053036 24 0.0 0.0 0.00 0.00 0.00 80 988.0
20260503052016 24 0.0 0.0 0.00 0.00 0.00 79 988.0
20260503051036 24 0.0 0.0 0.00 0.00 0.00 79 988.0
20260503050016 24 0.0 0.0 0.00 0.00 0.00 80 988.0
20260503045016 24 0.0 0.0 0.00 0.00 0.00 80 988.1
20260503044016 24 0.0 0.0 0.00 0.00 0.00 80 988.3
20260503043036 24 0.0 0.0 0.00 0.00 0.00 80 988.3
20260503042015 24 0.0 0.0 0.00 0.00 0.00 80 988.5
20260503041016 24 0.0 0.0 0.00 0.00 0.00 79 988.5
20260503040018 24 0.0 0.0 0.00 0.00 0.00 79 988.5
20260503035017 24 0.0 0.0 0.00 0.00 0.00 79 988.5
20260503034017 25 0.0 0.0 0.00 0.00 0.00 79 988.5
20260503033016 25 0.0 0.0 0.00 0.00 0.00 78 988.5
20260503032057 25 0.0 0.0 0.00 0.00 0.00 78 988.4
20260503031017 25 0.0 0.0 0.00 0.00 0.00 77 988.2
20260503030017 25 0.0 0.0 0.00 0.00 0.00 77 988.2
20260503025017 25 0.0 0.0 0.00 0.00 0.00 76 988.4
20260503024017 25 0.0 0.0 0.00 0.00 0.00 75 988.3
20260503023037 25 0.0 0.0 0.00 0.00 0.00 75 988.3
20260503022016 25 0.0 0.0 0.00 0.00 0.00 75 988.1
20260503021056 25 0.0 0.0 0.00 0.00 0.00 75 987.8
20260503020016 25 0.0 0.0 0.00 0.00 0.00 75 987.8
20260503015016 25 0.0 0.0 0.00 0.00 0.00 75 987.6
20260503014016 25 0.0 0.0 0.00 0.00 0.00 75 987.5
20260503013016 26 0.0 0.0 0.00 0.00 0.00 75 987.5
20260503012016 26 0.0 0.0 0.00 0.00 0.00 75 987.2
20260503011016 26 0.0 0.0 0.00 0.00 0.00 74 987.0
20260503010016 26 0.0 0.0 0.00 0.00 0.00 74 987.0
20260503005016 26 0.0 0.0 0.00 0.00 0.00 74 987.0
20260503004016 26 0.0 0.0 0.00 0.00 0.00 73 986.7
20260503003016 26 0.0 0.0 0.00 0.00 0.00 73 986.7
20260503002016 26 0.0 0.0 0.00 0.00 0.00 73 986.4
20260503001016 26 0.0 0.0 0.00 0.00 0.00 72 986.2
20260503000016 26 0.0 0.0 0.00 0.00 0.00 72 986.2
20260502235016 27 0.0 0.0 0.00 0.00 0.00 71 985.9
20260502234016 27 0.0 0.0 0.00 0.00 0.00 70 985.5
20260502233036 27 0.0 0.0 0.00 0.00 0.00 70 985.5
20260502232016 27 0.0 0.0 0.00 0.00 0.00 68 985.4
20260502231016 27 0.0 0.0 0.00 0.00 0.00 67 985.1
20260502230016 28 0.0 0.0 0.00 0.00 0.00 66 985.1
20260502225016 28 0.0 0.0 0.00 0.00 0.00 65 984.9
20260502224016 28 0.0 0.0 0.00 0.00 0.00 64 984.9
20260502223036 28 0.0 0.0 0.00 0.00 0.00 64 984.9
20260502222015 29 0.0 0.0 0.00 0.00 0.00 63 984.8
20260502221035 29 0.0 0.0 0.00 0.00 0.00 62 984.5
20260502220015 30 0.0 0.0 0.00 0.00 0.00 61 984.5
20260502215018 30 0.0 0.0 0.00 0.00 0.00 61 984.4
20260502214017 30 0.0 0.0 0.00 0.00 0.00 60 984.3
20260502213018 31 0.0 0.0 0.00 0.00 0.00 56 984.3
20260502212017 30 0.0 0.0 0.00 0.00 0.00 58 983.8
20260502211017 30 0.0 0.0 0.00 0.00 0.00 57 983.9
20260502210017 30 0.0 0.0 0.00 0.00 0.00 59 983.9
20260502205017 30 0.0 0.0 0.00 0.00 0.00 59 983.9
20260502204017 31 0.0 0.0 0.00 0.00 0.00 57 983.9
20260502203017 31 0.0 0.0 0.00 0.00 0.00 57 983.9
20260502202017 31 0.0 0.0 0.00 0.00 0.00 55 984.0
20260502201017 31 0.0 0.0 0.00 0.00 0.00 53 984.1
20260502200017 32 0.0 0.0 0.00 0.00 0.00 54 984.1
20260502195037 32 0.0 0.0 0.00 0.00 0.00 52 984.1
20260502194057 32 0.0 0.0 0.00 0.00 0.00 52 984.4
20260502193037 32 0.0 0.0 0.00 0.00 0.00 52 984.4
20260502192037 31 0.0 1.6 0.00 0.00 0.00 53 984.5
20260502191017 31 0.0 0.0 0.00 0.00 0.00 52 984.8
20260502190037 31 0.0 0.0 0.00 0.00 0.00 54 984.8
20260502185017 31 0.0 0.0 0.00 0.00 0.00 54 984.9
20260502184017 31 0.0 0.0 0.00 0.00 0.00 57 985.2
20260502183017 31 0.0 0.0 0.00 0.00 0.00 53 985.2
20260502182037 31 0.0 0.0 0.00 0.00 0.00 53 985.4
20260502181017 31 0.0 0.0 0.00 0.00 0.00 53 985.6
20260502164037 30 0.0 0.0 0.00 0.00 0.00 59 986.9
20260502163017 30 0.0 0.0 0.00 0.00 0.00 57 986.9
20260502162016 30 0.0 0.0 0.00 0.00 0.00 58 987.0
20260502161016 30 0.0 0.0 0.00 0.00 0.00 60 987.1
20260502152016 29 0.0 0.0 0.00 0.00 0.00 62 987.6
20260502151016 28 0.0 0.0 0.00 0.00 0.00 64 987.6
20260502123016 26 0.0 0.0 0.00 0.00 0.00 72 987.3
20260502122016 26 0.0 0.0 0.00 0.00 0.00 74 987.1
20260502121015 25 0.0 0.0 0.00 0.00 0.00 77 987.0
20260502115015 24 0.0 0.0 0.00 0.00 0.00 80 987.0
20260502114015 24 0.0 0.0 0.00 0.00 0.00 82 987.0
20260502113038 23 0.0 0.0 0.00 0.00 0.00 83 987.0
20260502112017 23 0.0 0.0 0.00 0.00 0.00 85 986.8
20260502111018 23 0.0 0.0 0.00 0.00 0.00 87 986.5
20260502110017 22 0.0 0.0 0.00 0.00 0.00 87 986.5
20260502105018 22 0.0 0.0 0.00 0.00 0.00 88 986.4
20260502104017 22 0.0 0.0 0.00 0.00 0.00 88 986.1
20260502103017 22 0.0 0.0 0.00 0.00 0.00 88 986.1
20260502102017 22 0.0 0.0 0.00 0.00 0.00 88 986.2
20260502101057 22 0.0 0.0 0.00 0.00 0.00 88 986.2
20260502091017 23 0.0 0.0 0.00 0.00 0.00 87 985.9
20260502071037 23 0.0 0.0 0.00 0.03 0.00 84 985.4
20260502070017 23 0.0 0.0 0.00 0.03 0.00 83 985.4
20260502065017 23 0.0 0.0 0.00 0.03 0.00 83 985.4
20260502064017 23 0.0 0.0 0.00 0.03 0.00 82 985.5
20260502063016 23 0.0 0.0 0.00 0.03 0.00 82 985.5
20260502062017 23 0.0 0.0 0.00 0.03 0.00 82 985.5
20260502061016 23 0.0 0.0 0.00 0.03 0.00 81 985.6
20260502060037 23 0.0 0.0 0.00 0.03 0.00 81 985.6
20260502055016 24 0.0 0.0 0.00 0.03 0.00 81 985.9
20260502054016 23 0.0 0.0 0.00 0.03 0.00 81 985.9